RYR2901 EKCH-EGLL

Flight info

Callsign RYR2901
Flight time N/A
Altitude 36000
Route LANGO2A LANGO DCT RAXLU DCT JUIST DCT ABNED L980 LOGAN LOGAN2H
Aircraft B738/M-SDE2E3FGHIRWXY/LB1

Departure

Time 2026-04-25 19:34
Airport Copenhagen Kastrup Airport (EKCH)

Arrival

Time N/A
Airport London Heathrow Airport (EGLL)
Time Latitude Longitude Altitude Speed Heading
2026-04-25 19:05 55.62557 12.64892 20 ft 0 kts 64°
2026-04-25 19:23 55.62552 12.64874 20 ft 3 kts 66°
2026-04-25 19:23 55.62540 12.64807 19 ft 3 kts 91°
2026-04-25 19:23 55.62543 12.64778 19 ft 3 kts 138°
2026-04-25 19:24 55.62550 12.64770 21 ft 0 kts 178°
2026-04-25 19:28 55.62531 12.64771 19 ft 9 kts 179°
2026-04-25 19:28 55.62428 12.64777 20 ft 16 kts 177°
2026-04-25 19:29 55.62278 12.64794 26 ft 19 kts 174°
2026-04-25 19:29 55.62217 12.64779 22 ft 0 kts 206°
2026-04-25 19:29 55.62210 12.64773 22 ft 6 kts 206°
2026-04-25 19:29 55.62134 12.64691 22 ft 19 kts 216°
2026-04-25 19:30 55.61979 12.64520 19 ft 32 kts 198°
2026-04-25 19:30 55.61778 12.64548 21 ft 16 kts 168°
2026-04-25 19:30 55.61628 12.64508 19 ft 29 kts 210°
2026-04-25 19:30 55.61425 12.64280 16 ft 40 kts 214°
2026-04-25 19:31 55.61163 12.63977 16 ft 49 kts 213°
2026-04-25 19:31 55.60887 12.63656 19 ft 34 kts 213°
2026-04-25 19:31 55.60748 12.63667 23 ft 18 kts 131°
2026-04-25 19:31 55.60734 12.63696 23 ft 0 kts 131°
2026-04-25 19:32 55.60733 12.63698 23 ft 0 kts 131°
2026-04-25 19:33 55.60717 12.63731 23 ft 8 kts 131°
2026-04-25 19:33 55.60695 12.63850 27 ft 13 kts 81°
2026-04-25 19:33 55.60733 12.63960 25 ft 0 kts 40°
2026-04-25 19:34 55.60803 12.64061 27 ft 51 kts 40°
2026-04-25 19:34 55.61334 12.64871 22 ft 145 kts 37°
2026-04-25 19:34 55.62250 12.66346 251 ft 203 kts 40°
2026-04-25 19:34 55.63203 12.68082 1766 ft 176 kts 40°
2026-04-25 19:35 55.63983 12.69657 3458 ft 156 kts 35°
2026-04-25 19:35 55.64710 12.70779 4992 ft 126 kts 30°
2026-04-25 19:35 55.65391 12.71664 5817 ft 128 kts 28°
2026-04-25 19:35 55.66235 12.72724 5925 ft 173 kts 30°
2026-04-25 19:36 55.67294 12.74146 6119 ft 206 kts 33°
2026-04-25 19:36 55.68482 12.75832 6399 ft 236 kts 36°
2026-04-25 19:36 55.69495 12.78291 7054 ft 260 kts 63°
2026-04-25 19:36 55.69733 12.81543 7887 ft 281 kts 90°
2026-04-25 19:37 55.69093 12.84929 8716 ft 301 kts 117°
2026-04-25 19:37 55.67634 12.87704 9535 ft 316 kts 144°
2026-04-25 19:37 55.65608 12.89275 10296 ft 325 kts 169°
2026-04-25 19:37 55.63310 12.89456 10572 ft 345 kts 190°
2026-04-25 19:38 55.60843 12.88799 10812 ft 367 kts 194°
2026-04-25 19:38 55.58296 12.87908 11390 ft 374 kts 204°
2026-04-25 19:38 55.56109 12.85733 12126 ft 358 kts 232°
2026-04-25 19:38 55.54751 12.82246 12994 ft 336 kts 258°
2026-04-25 19:39 55.54073 12.78333 13865 ft 331 kts 264°
2026-04-25 19:39 55.53428 12.74395 14630 ft 336 kts 263°
2026-04-25 19:39 55.52675 12.70506 15441 ft 340 kts 261°
2026-04-25 19:39 55.51789 12.66594 16253 ft 345 kts 259°
2026-04-25 19:40 55.50799 12.62695 17036 ft 350 kts 258°
2026-04-25 19:40 55.49743 12.58848 17793 ft 354 kts 258°
2026-04-25 19:40 55.48615 12.54939 18496 ft 359 kts 257°
2026-04-25 19:40 55.47440 12.50990 19107 ft 364 kts 257°
2026-04-25 19:41 55.46247 12.47054 19674 ft 369 kts 257°
2026-04-25 19:41 55.45015 12.43037 20243 ft 373 kts 257°
2026-04-25 19:41 55.43766 12.38992 20827 ft 377 kts 257°
2026-04-25 19:41 55.42924 12.36277 21208 ft 380 kts 257°
2026-04-25 19:42 55.41234 12.30844 21941 ft 385 kts 257°
2026-04-25 19:42 55.39930 12.26660 22397 ft 390 kts 258°
2026-04-25 19:42 55.38612 12.22429 22808 ft 397 kts 258°
2026-04-25 19:42 55.37283 12.18175 23336 ft 401 kts 258°
2026-04-25 19:43 55.35930 12.13864 23838 ft 403 kts 258°
2026-04-25 19:43 55.34566 12.09527 24284 ft 407 kts 258°
2026-04-25 19:43 55.33206 12.05195 24709 ft 409 kts 258°
2026-04-25 19:43 55.31823 12.00772 25155 ft 413 kts 258°
2026-04-25 19:44 55.30429 11.96321 25577 ft 416 kts 257°
2026-04-25 19:44 55.29043 11.91914 25979 ft 419 kts 257°
2026-04-25 19:44 55.27617 11.87402 26383 ft 423 kts 257°
2026-04-25 19:44 55.26182 11.82878 26780 ft 426 kts 257°
2026-04-25 19:45 55.24724 11.78297 27162 ft 429 kts 257°
2026-04-25 19:45 55.23275 11.73754 27542 ft 432 kts 257°
2026-04-25 19:45 55.21794 11.69121 27821 ft 435 kts 256°
2026-04-25 19:45 55.20326 11.64552 28320 ft 435 kts 256°
2026-04-25 19:46 55.18831 11.59897 28584 ft 438 kts 255°
2026-04-25 19:46 55.17328 11.55215 28841 ft 443 kts 254°
2026-04-25 19:46 55.15827 11.50546 29150 ft 446 kts 254°
2026-04-25 19:46 55.14292 11.45790 29521 ft 448 kts 254°
2026-04-25 19:47 55.12744 11.41006 29851 ft 451 kts 254°
2026-04-25 19:47 55.11205 11.36259 30138 ft 454 kts 254°
2026-04-25 19:47 55.09639 11.31436 30414 ft 456 kts 254°
2026-04-25 19:47 55.08084 11.26679 30839 ft 454 kts 253°
2026-04-25 19:48 55.06492 11.21934 31365 ft 451 kts 253°
2026-04-25 19:48 55.04887 11.17224 31848 ft 448 kts 253°
2026-04-25 19:48 55.03287 11.12551 32244 ft 447 kts 253°
2026-04-25 19:48 55.01694 11.07899 32541 ft 446 kts 252°
2026-04-25 19:49 55.00124 11.03311 32921 ft 445 kts 252°
2026-04-25 19:49 54.99583 11.01730 33048 ft 445 kts 252°
2026-04-25 19:49 54.96949 10.94034 33550 ft 444 kts 251°
2026-04-25 19:49 54.95371 10.89417 33661 ft 450 kts 251°
2026-04-25 19:50 54.92149 10.80027 34281 ft 449 kts 251°
2026-04-25 19:50 54.90557 10.75420 34629 ft 447 kts 250°
2026-04-25 19:50 54.88945 10.70758 34908 ft 447 kts 250°
2026-04-25 19:51 54.87355 10.66162 35133 ft 448 kts 250°
2026-04-25 19:51 54.85746 10.61519 35401 ft 448 kts 250°
2026-04-25 19:51 54.84126 10.56852 35697 ft 447 kts 250°
2026-04-25 19:51 54.82529 10.52263 35967 ft 447 kts 250°
2026-04-25 19:52 54.80905 10.47598 35993 ft 452 kts 249°
2026-04-25 19:52 54.77652 10.38278 36044 ft 452 kts 249°
2026-04-25 19:53 54.74416 10.29083 36042 ft 445 kts 249°
2026-04-25 19:53 54.71192 10.19933 36073 ft 444 kts 249°
2026-04-25 19:54 54.67974 10.10821 36071 ft 444 kts 249°
2026-04-25 19:54 54.64753 10.01737 36072 ft 445 kts 249°
2026-04-25 19:55 54.62046 9.94130 36079 ft 446 kts 249°
2026-04-25 19:55 54.58241 9.83480 36089 ft 446 kts 248°
2026-04-25 19:56 54.54985 9.74405 36092 ft 447 kts 248°
2026-04-25 19:56 54.51694 9.65272 36073 ft 447 kts 247°
2026-04-25 19:57 54.48410 9.56186 36098 ft 448 kts 247°
2026-04-25 19:57 54.45115 9.47099 36105 ft 449 kts 247°
2026-04-25 19:58 54.41804 9.38003 36104 ft 451 kts 247°
2026-04-25 19:58 54.38457 9.28845 36068 ft 451 kts 246°
2026-04-25 19:59 54.35125 9.19765 36097 ft 452 kts 246°
2026-04-25 19:59 54.31764 9.10636 36106 ft 452 kts 246°
2026-04-25 20:00 54.28410 9.01564 36101 ft 451 kts 245°
2026-04-25 20:00 54.25055 8.92523 36111 ft 451 kts 245°
2026-04-25 20:01 54.20003 8.78955 36116 ft 451 kts 245°
2026-04-25 20:01 54.16621 8.69913 36115 ft 450 kts 245°
2026-04-25 20:02 54.13255 8.60954 36116 ft 450 kts 244°
2026-04-25 20:02 54.09876 8.51993 36123 ft 449 kts 244°
2026-04-25 20:03 54.06500 8.43070 36118 ft 448 kts 244°
2026-04-25 20:03 54.03118 8.34162 36133 ft 448 kts 244°
2026-04-25 20:04 53.99720 8.25245 36147 ft 448 kts 244°
2026-04-25 20:04 53.96332 8.16381 36132 ft 448 kts 243°
2026-04-25 20:05 53.92936 8.07535 36161 ft 447 kts 243°
2026-04-25 20:05 53.89536 7.98707 36175 ft 447 kts 243°
2026-04-25 20:06 53.86114 7.89852 36182 ft 448 kts 243°
2026-04-25 20:06 53.82700 7.81060 36170 ft 448 kts 242°
2026-04-25 20:07 53.79265 7.72230 36183 ft 448 kts 242°
2026-04-25 20:07 53.75839 7.63453 36185 ft 448 kts 242°
2026-04-25 20:08 53.72414 7.54711 36178 ft 448 kts 241°
2026-04-25 20:08 53.68957 7.45924 36182 ft 448 kts 241°
2026-04-25 20:09 53.65513 7.37199 36186 ft 447 kts 241°
2026-04-25 20:09 53.62068 7.28501 36184 ft 447 kts 241°
2026-04-25 20:10 53.58590 7.19755 36183 ft 446 kts 240°
2026-04-25 20:10 53.55728 7.12575 36189 ft 446 kts 240°
2026-04-25 20:11 53.52268 7.03922 36182 ft 446 kts 240°
2026-04-25 20:11 53.48222 6.93841 36198 ft 445 kts 240°
2026-04-25 20:12 53.45325 6.86649 36200 ft 446 kts 239°
2026-04-25 20:12 53.42442 6.79514 36209 ft 446 kts 239°
2026-04-25 20:13 53.38371 6.69471 36200 ft 446 kts 239°
2026-04-25 20:13 53.34866 6.60856 36207 ft 446 kts 239°
2026-04-25 20:14 53.31362 6.52272 36207 ft 447 kts 239°
2026-04-25 20:14 53.27852 6.43703 36208 ft 447 kts 239°
2026-04-25 20:15 53.24343 6.35167 36204 ft 447 kts 239°
2026-04-25 20:15 53.20800 6.26577 36210 ft 448 kts 238°
2026-04-25 20:16 53.17277 6.18064 36220 ft 448 kts 238°
2026-04-25 20:16 53.13722 6.09501 36220 ft 448 kts 238°
2026-04-25 20:17 53.10170 6.00976 36226 ft 448 kts 238°
2026-04-25 20:17 53.06624 5.92495 36229 ft 447 kts 238°
2026-04-25 20:18 53.03076 5.84034 36228 ft 447 kts 238°
2026-04-25 20:18 52.99527 5.75602 36230 ft 446 kts 238°
2026-04-25 20:19 52.95974 5.67185 36233 ft 446 kts 238°
2026-04-25 20:19 52.92394 5.58736 36237 ft 445 kts 238°
2026-04-25 20:20 52.88841 5.50375 36223 ft 444 kts 237°
2026-04-25 20:20 52.85289 5.42047 36239 ft 444 kts 237°
2026-04-25 20:21 52.81711 5.33684 36243 ft 443 kts 237°
2026-04-25 20:21 52.78158 5.25406 36245 ft 443 kts 237°
2026-04-25 20:22 52.75167 5.18458 36245 ft 443 kts 237°
2026-04-25 20:22 52.71013 5.08840 36251 ft 443 kts 237°
2026-04-25 20:23 52.67415 5.00539 36231 ft 443 kts 237°
2026-04-25 20:23 52.63833 4.92301 36225 ft 443 kts 236°
2026-04-25 20:24 52.60220 4.84021 36235 ft 443 kts 236°
2026-04-25 20:24 52.56625 4.75808 36232 ft 444 kts 236°
2026-04-25 20:25 52.53022 4.67603 36227 ft 444 kts 236°
2026-04-25 20:25 52.49389 4.59355 36226 ft 444 kts 236°
2026-04-25 20:26 52.45768 4.51161 36233 ft 444 kts 236°
2026-04-25 20:26 52.42131 4.42959 36236 ft 444 kts 236°